TimeEDT,TemperatureF,Dew PointF,Humidity,Sea Level PressureIn,VisibilityMPH,Wind Direction,Wind SpeedMPH,Gust SpeedMPH,PrecipitationIn,Events,Conditions,WindDirDegrees,DateUTC
12:54 AM,36.0,32.0,86,29.69,10.0,SW,6.9,-,N/A,,Clear,230,2012-10-17 04:54:00
1:54 AM,36.0,30.9,82,29.71,10.0,West,9.2,-,N/A,,Clear,260,2012-10-17 05:54:00
2:54 AM,34.0,30.9,89,29.74,10.0,WSW,6.9,-,N/A,,Clear,240,2012-10-17 06:54:00
3:54 AM,33.1,30.0,89,29.75,10.0,WSW,6.9,-,N/A,,Clear,250,2012-10-17 07:54:00
4:54 AM,34.0,30.0,85,29.78,10.0,WSW,5.8,-,N/A,,Clear,250,2012-10-17 08:54:00
5:54 AM,33.1,30.0,89,29.80,10.0,WSW,5.8,-,N/A,,Clear,240,2012-10-17 09:54:00
6:54 AM,33.1,30.0,89,29.82,10.0,Calm,Calm,-,N/A,,Clear,0,2012-10-17 10:54:00
7:54 AM,35.1,30.9,85,29.84,10.0,SW,4.6,-,N/A,,Clear,230,2012-10-17 11:54:00
8:54 AM,37.9,32.0,79,29.87,10.0,SW,6.9,-,N/A,,Clear,220,2012-10-17 12:54:00
9:37 AM,39.2,32.0,75,29.85,10.0,NW,9.2,17.3,N/A,,Mostly Cloudy,310,2012-10-17 13:37:00
9:54 AM,41.0,32.0,70,29.88,10.0,WNW,9.2,-,N/A,,Mostly Cloudy,300,2012-10-17 13:54:00
10:52 AM,42.8,33.8,70,29.85,10.0,NW,10.4,-,N/A,,Scattered Clouds,310,2012-10-17 14:52:00
10:54 AM,43.0,33.1,68,29.88,10.0,WNW,9.2,-,N/A,,Scattered Clouds,290,2012-10-17 14:54:00
11:54 AM,46.0,32.0,58,29.88,10.0,NW,8.1,-,N/A,,Partly Cloudy,320,2012-10-17 15:54:00
12:54 PM,48.0,33.1,56,29.87,10.0,NW,10.4,-,N/A,,Partly Cloudy,320,2012-10-17 16:54:00
1:54 PM,50.0,33.1,52,29.86,10.0,NW,8.1,-,N/A,,Clear,310,2012-10-17 17:54:00
2:54 PM,51.1,33.1,50,29.86,10.0,NNW,6.9,-,N/A,,Clear,330,2012-10-17 18:54:00
3:54 PM,51.1,32.0,48,29.86,10.0,WNW,5.8,-,N/A,,Clear,300,2012-10-17 19:54:00
4:54 PM,50.0,33.1,52,29.89,10.0,NNW,3.5,-,N/A,,Clear,340,2012-10-17 20:54:00
5:54 PM,46.9,33.1,59,29.91,10.0,NNW,5.8,-,N/A,,Clear,330,2012-10-17 21:54:00
6:54 PM,45.0,32.0,60,29.94,10.0,NNW,4.6,-,N/A,,Clear,340,2012-10-17 22:54:00
7:54 PM,41.0,30.0,65,29.96,10.0,Calm,Calm,-,N/A,,Clear,0,2012-10-17 23:54:00
8:54 PM,41.0,30.0,65,29.97,10.0,NNW,6.9,-,N/A,,Clear,340,2012-10-18 00:54:00
9:54 PM,37.0,30.0,76,29.98,10.0,North,4.6,-,N/A,,Clear,10,2012-10-18 01:54:00
10:54 PM,36.0,28.9,76,29.98,10.0,North,5.8,-,N/A,,Clear,350,2012-10-18 02:54:00
11:54 PM,32.0,28.0,85,29.99,10.0,Variable,3.5,-,N/A,,Clear,0,2012-10-18 03:54:00